Simultaneous Nadir Overpasses (SNOs) Predictions

Prediction of SNOs between NOAA-19 and TERRA Satellite Orbit:

Table of predicted SNOs for the next 14.0 days since TLE Epoch: 3/13/2021
Index Date (NOAA-19) Time (NOAA-19) Lat,Lon (NOAA-19) SZA (NOAA-19 ) Date (TERRA) Time (TERRA) Lat,Lon (TERRA) SZA (TERRA ) Distance(km) Time Diff (sec)
1 03/13/2021 09:44:55 -80.10,-114.01 95.88 03/13/2021 09:45:45 -80.10,-114.05 95.86 1.07 50
2 03/13/2021 10:35:51 80.08, 53.49 84.12 03/13/2021 10:35:12 80.07, 53.32 84.08 3.29 39
3 03/15/2021 16:09:07 -80.09, 150.19 96.74 03/15/2021 16:08:54 -80.10, 150.15 96.74 2.05 13
4 03/17/2021 21:42:16 80.11,-113.35 82.40 03/17/2021 21:42:36 80.10,-113.32 82.40 1.41 20
5 03/17/2021 22:33:14 -79.96, 55.93 97.57 03/17/2021 22:32:03 -80.10, 54.33 97.62 34.40 71
6 03/20/2021 03:15:33 -80.12, -16.75 98.47 03/20/2021 03:16:19 -80.10, -16.79 98.48 3.07 46
7 03/20/2021 04:06:27 80.11, 150.70 81.53 03/20/2021 04:05:44 80.09, 150.83 81.51 3.16 43
8 03/22/2021 09:39:44 -80.11,-112.61 99.34 03/22/2021 09:39:27 -80.09,-112.65 99.37 3.13 17
9 03/24/2021 15:12:51 80.12, -15.83 79.81 03/24/2021 15:13:08 80.11, -15.93 79.80 2.28 17
10 03/26/2021 20:46:08 -80.11, 80.98 101.04 03/26/2021 20:46:50 -80.13, 80.87 101.02 2.82 42



Historial Predications of SNOs between NOAA-19 and TERRA
